User: anonymous   Login
Location: Caltech
(34.1382°N, 118.1253°W)
Time: 08:00:02
(UTC-07:00)
Language:

Cosmos 1025 Rocket - Orbit

View from above orbital plane
View from above orbital plane
View from above satellite
View from above satellite

Ground track
Ground track

The orbit data is extracted from the following two-line orbital elements,

1 10974U 78067B   14304.39406481  .00000556  00000-0  59682-4 0  4508
2 10974 082.4833 357.9693 0016045 282.8695 190.7811 14.86715147964931
Epoch (UTC): 31 October 2014 09:27:27
Eccentricity: 0.0016045
inclination: 82.4833°
perigee height: 597 km
apogee height: 619 km
right ascension of ascending node: 357.9693°
argument of perigee: 282.8695°
revolutions per day: 14.86715147
mean anomaly at epoch: 190.7811°
orbit number at epoch: 96493

The dashed part of the orbit path shows where the satellite is in the earth's shadow,  

DLR